Simultaneous Nadir Overpasses (SNOs) Predictions

Prediction of SNOs between GOES-16 and NOAA-20 Satellite Orbit:

Table of predicted SNOs for the next 14.0 days since TLE Epoch: 5/25/2024
Index Date Time (GOES-16) GOES-16 Lat,Lon NOAA-20 Lat,Lon Distance(km) Time Diff (sec)
1 05/25/2024 06:11:44 -0.02, -75.21 -0.73, -72.14 349.71 80
2 05/26/2024 18:36:17 0.01, -75.21 -0.46, -77.43 253.04 80
3 05/27/2024 18:14:49 0.02, -75.21 0.52, -72.89 264.60 80
4 05/29/2024 06:39:13 -0.01, -75.22 0.66, -78.15 333.56 80
5 05/30/2024 06:17:47 -0.01, -75.23 -0.39, -73.62 184.46 80
6 05/31/2024 18:42:19 0.00, -75.24 -0.79, -78.91 417.12 80
7 06/01/2024 18:20:52 0.01, -75.25 0.21, -74.36 101.45 80
8 06/03/2024 06:45:16 -0.00, -75.28 0.97, -79.62 495.32 80
9 06/04/2024 06:23:49 -0.01, -75.29 -0.03, -75.08 23.44 80
10 06/06/2024 18:29:33 0.01, -75.32 -0.13, -75.83 58.78 80
11 06/07/2024 18:10:47 0.01, -75.34 0.93, -71.30 460.48 80
